[[{"header":{"parameterUnit":"m.s-1","parameterCategory":2,"la1":30.2991,"la2":30.254,"lo1":-89.0895,"lo2":-89.0444,"dy":0.0017,"dx":0.0017,"nx":28,"ny":28,"refTime":"2025-07-28T03:00:00:Z","depth":"0","parameterNumber":2,"parameterNumberName":"U-component_of_CURRENTS"},"data":[0,0,0,0,0,0,0,0,0,0,0,0,0,0,0,0,0,0,0,0,0,0,0,0,0,0,0,0,0,0,0,0,0,0,0,0,0,0,0,0,0,0,0,0,0,0,0,0,0,0,0,0,0,0,0,0,0,0,0.2238,0.224,0,0.2308,0.2308,0.2309,0.2321,0.2321,0.2321,0.2321,0.2359,0.236,0.2361,0,0,0,0,0,0,0,0,0,0,0,0,0,0.2086,0.2089,0.2238,0.224,0.2241,0.2308,0.2308,0.2309,0.2321,0.2321,0.2321,0.2321,0.2358,0.236,0.2361,0,0,0,0,0,0,0,0,0,0,0,0,0,0.2148,0.2089,0.2238,0.2259,0.2262,0.2308,0.2308,0.2309,0.2321,0.2321,0.2321,0.2321,0.2358,0.236,0.2361,0.2373,0,0,0.2366,0.2367,0,0,0,0,0,0,0,0,0.2145,0.2153,0.2255,0.2258,0.2261,0.231,0.2269,0.2331,0.2321,0.2293,0.2321,0.2321,0.2343,0.2346,0.2352,0.2375,0.2377,0.2366,0.2367,0.2368,0.2368,0,0,0,0,0,0,0,0.214,0.215,0.226,0.2256,0.2261,0.2256,0.2264,0.228,0.2313,0.2295,0.2298,0.2314,0.2344,0.235,0.2353,0.2377,0.2366,0.2368,0.2369,0.2369,0.2459,0.246,0,0,0,0,0,0,0.2145,0.2147,0.2258,0.2263,0.2208,0.2259,0.2268,0.229,0.2314,0.2319,0.2314,0.2315,0.2348,0.2351,0.2354,0.2403,0.2368,0.2369,0.237,0.2458,0.2459,0.2461,0,0,0,0,0,0,0.2142,0.2155,0.2255,0.221,0.2223,0.2262,0.2287,0.2292,0.2302,0.2329,0.2333,0.232,0.2348,0.2352,0.2381,0.2404,0.237,0.2372,0.2456,0.2458,0.246,0.248,0,0,0,0,0,0,0.2137,0.2153,0.2163,0.2211,0.2226,0.2284,0.2288,0.2293,0.2315,0.2316,0.2336,0.2339,0.2348,0.2379,0.2383,0.2405,0.2373,0.2454,0.2457,0.2459,0.2478,0.2483,0.2487,0,0,0,0,0,0.2132,0.2151,0.2163,0.2177,0.2242,0.2285,0.2291,0.2314,0.2315,0.2321,0.2342,0.2338,0.2399,0.2381,0.2386,0.2409,0.2453,0.2456,0.2459,0.2475,0.2482,0.2487,0,0,0,0,0,0,0.208,0.2156,0.217,0.2209,0.2244,0.2289,0.2299,0.2316,0.2336,0.2335,0.2352,0.2358,0.2394,0.24,0.238,0.2445,0.2427,0.2431,0.2438,0.2444,0.2448,0.2467,0.2374,0,0,0,0,0,0.2078,0.2117,0.2175,0.2203,0.2221,0.2258,0.2276,0.2295,0.2326,0.2334,0.2351,0.2376,0.2411,0.2424,0.2449,0.2478,0.2533,0.2499,0.2504,0.2507,0.2528,0.2622,0.2638,0.2471,0.2471,0.2471,0,0,0.2066,0.2112,0.2133,0.2195,0.2221,0.2253,0.2267,0.2298,0.2327,0.2335,0.2367,0.239,0.2423,0.2463,0.2479,0.2469,0.2588,0.2511,0.2514,0.2533,0.2627,0.2644,0.2658,0.2474,0.2473,0.2473,0,0,0.2063,0.21,0.213,0.2164,0.2216,0.2245,0.2256,0.2302,0.2323,0.2358,0.2383,0.2426,0.2454,0.25,0.2523,0.257,0.261,0.257,0.2607,0.2698,0.2713,0.2727,0.2838,0.2862,0.2571,0.2571,0.2571,0,0.2038,0.2096,0.214,0.2174,0.2208,0.2243,0.2275,0.2303,0.2352,0.2388,0.2368,0.2468,0.248,0.2571,0.2583,0.2582,0.2646,0.2579,0.2705,0.272,0.2734,0.2844,0.287,0.2572,0.2572,0.2572,0.2572,0,0.2062,0.2104,0.2122,0.2185,0.2219,0.2254,0.2308,0.2338,0.2362,0.2404,0.2486,0.2518,0.2585,0.2592,0.2597,0.2706,0.2727,0.27,0.269,0.2752,0.2865,0.2891,0.2574,0.2573,0.2573,0.2573,0,0,0.2022,0.2121,0.2128,0.2165,0.2234,0.2268,0.232,0.2397,0.2457,0.249,0.2579,0.263,0.266,0.2691,0.2715,0.2784,0.2927,0.278,0.2784,0.2891,0.3159,0.3127,0.3152,0.2921,0.2925,0.2928,0.3207,0,0.2027,0.2097,0.2149,0.221,0.2251,0.2309,0.2363,0.2433,0.2496,0.2584,0.2645,0.2727,0.2696,0.2741,0.2806,0.2898,0.2994,0.2856,0.3085,0.3093,0.3055,0.318,0.3041,0.3273,0.3233,0.3237,0.324,0,0.2033,0.2091,0.2151,0.2253,0.2276,0.2312,0.2427,0.2485,0.2613,0.2669,0.2763,0.2815,0.2937,0.2888,0.3096,0.3011,0.3096,0.3159,0.317,0.3152,0.3108,0.3202,0.3322,0.3225,0.3281,0.3278,0.3275,0,0.1997,0.2093,0.2147,0.2177,0.2287,0.2327,0.2388,0.2508,0.2589,0.2739,0.2816,0.2951,0.3035,0.3153,0.3258,0.3199,0.349,0.3424,0.3493,0.3493,0.3427,0.3413,0.3478,0.3599,0.3598,0.3597,0.3597,0,0.1991,0.2034,0.2133,0.2162,0.2244,0.2317,0.2422,0.2506,0.2648,0.2761,0.2859,0.2975,0.3102,0.3259,0.334,0.3513,0.3567,0.355,0.3574,0.3431,0.3414,0.3365,0.3297,0.3608,0.3605,0.3603,0.3602,0,0.1943,0.2005,0.2074,0.2186,0.2228,0.2282,0.2433,0.2515,0.2647,0.2801,0.2853,0.3039,0.3235,0.3377,0.3598,0.3626,0.3692,0.3833,0.3664,0.3661,0.3577,0.3514,0.3529,0.3431,0.3964,0.3965,0.3966,0,0.1929,0.1957,0.2077,0.2128,0.2178,0.2279,0.2355,0.25,0.2594,0.2836,0.2905,0.3135,0.3279,0.36,0.3709,0.3903,0.3764,0.3877,0.372,0.3599,0.355,0.3387,0.329,0.3667,0.3665,0.3664,0.3663,0,0.1907,0.194,0.2004,0.2105,0.2182,0.2278,0.2392,0.2464,0.2639,0.2774,0.296,0.3095,0.3383,0.3509,0.3746,0.3829,0.3663,0.3853,0.3776,0.3378,0.3161,0.3067,0.3472,0.365,0.3652,0.3653,0.3653,0.3654,0.1891,0.1921,0.2002,0.2093,0.2176,0.2254,0.2311,0.2434,0.257,0.2746,0.2914,0.3072,0.3295,0.3591,0.3662,0.3661,0.3614,0.3571,0.3535,0.3406,0.32,0.3587,0.3739,0.3741,0.3742,0.3744,0.3745,0,0.1882,0.1919,0.1995,0.2092,0.2147,0.2209,0.2322,0.2364,0.2477,0.2654,0.2805,0.2998,0.3157,0.3313,0.3418,0.3347,0.3199,0.3275,0.3005,0.2947,0.336,0.323,0.3218,0.3218,0.3218,0.3218,0.3218,0.3218,0.1883,0.1929,0.1964,0.2041,0.2098,0.2144,0.2185,0.2251,0.2355,0.2484,0.2574,0.2705,0.2941,0.316,0.3139,0.3078,0.2831,0.274,0.2734,0.3006,0.3029,0.305,0.2912,0.2833,0.2833,0.219,0.2185,0.2182]},{"header":{"parameterUnit":"m.s-1","parameterCategory":2,"la1":30.2991,"la2":30.254,"lo1":-89.0895,"lo2":-89.0444,"dy":0.0017,"dx":0.0017,"nx":28,"ny":28,"refTime":"2025-07-28T03:00:00:Z","depth":"0","parameterNumber":3,"parameterNumberName":"V-component_of_CURRENTS"},"data":[0,0,0,0,0,0,0,0,0,0,0,0,0,0,0,0,0,0,0,0,0,0,0,0,0,0,0,0,0,0,0,0,0,0,0,0,0,0,0,0,0,0,0,0,0,0,0,0,0,0,0,0,0,0,0,0,0,0,0.0442,0.0442,0,0.0398,0.0397,0.0397,0.0349,0.0349,0.0348,0.0347,0.0242,0.024,0.0238,0,0,0,0,0,0,0,0,0,0,0,0,0,0.0453,0.0453,0.0442,0.0442,0.0441,0.0398,0.0397,0.0397,0.0349,0.0349,0.0348,0.0347,0.0243,0.024,0.0238,0,0,0,0,0,0,0,0,0,0,0,0,0,0.0431,0.0453,0.0442,0.0413,0.041,0.0398,0.0397,0.0397,0.0349,0.0349,0.0348,0.0347,0.0244,0.0241,0.0237,0.0233,0,0,0.0227,0.0225,0,0,0,0,0,0,0,0,0.0433,0.0431,0.0418,0.0415,0.0412,0.0379,0.0363,0.0339,0.035,0.0371,0.0347,0.0347,0.0284,0.0277,0.027,0.0228,0.0223,0.0227,0.0224,0.0223,0.0222,0,0,0,0,0,0,0,0.0434,0.0432,0.0423,0.0418,0.0414,0.0392,0.0388,0.0358,0.0331,0.0369,0.0366,0.0364,0.0282,0.0273,0.0267,0.0222,0.0227,0.0224,0.0221,0.022,0.0125,0.0124,0,0,0,0,0,0,0.0445,0.0434,0.0425,0.0422,0.0422,0.0393,0.0388,0.039,0.0332,0.0323,0.0364,0.0362,0.028,0.0271,0.0263,0.0222,0.0223,0.022,0.0218,0.0125,0.0124,0.0124,0,0,0,0,0,0,0.0446,0.0445,0.0426,0.0428,0.0424,0.0394,0.0395,0.0389,0.0381,0.0329,0.0319,0.0362,0.0279,0.0268,0.0234,0.0219,0.0218,0.0215,0.0126,0.0125,0.0124,0.016,0,0,0,0,0,0,0.0446,0.0446,0.0452,0.0429,0.0424,0.0424,0.0396,0.0389,0.0381,0.0377,0.0324,0.0314,0.0277,0.0239,0.0231,0.0214,0.0212,0.0126,0.0125,0.0124,0.016,0.0161,0.0162,0,0,0,0,0,0.0447,0.0465,0.0453,0.0452,0.0434,0.0425,0.0421,0.0395,0.0382,0.0383,0.0343,0.0315,0.0227,0.0237,0.0226,0.0208,0.0127,0.0126,0.0125,0.0159,0.0161,0.0162,0,0,0,0,0,0,0.0481,0.0461,0.0447,0.046,0.0444,0.0418,0.042,0.0402,0.0374,0.0366,0.0317,0.0303,0.0266,0.0236,0.0249,0.0177,0.0169,0.0166,0.0199,0.02,0.0201,0.0225,0.021,0,0,0,0,0,0.0491,0.0495,0.0471,0.0483,0.0476,0.0449,0.0443,0.0424,0.0397,0.0384,0.0345,0.0298,0.0254,0.0229,0.0191,0.0159,0.0149,0.0137,0.0138,0.0139,0.0151,0.0128,0.0128,0.012,0.012,0.012,0,0,0.051,0.0499,0.0503,0.049,0.0475,0.046,0.0443,0.0438,0.0416,0.0376,0.034,0.0306,0.0248,0.0207,0.0186,0.0179,0.0136,0.0138,0.014,0.0151,0.0127,0.0127,0.0128,0.012,0.012,0.012,0,0,0.0542,0.0538,0.0544,0.0526,0.0505,0.0483,0.0484,0.0455,0.0434,0.0401,0.036,0.0327,0.026,0.0218,0.0186,0.0173,0.0147,0.0151,0.017,0.0146,0.0147,0.0148,0.0142,0.0142,0.0146,0.0146,0.0146,0,0.0563,0.0562,0.0546,0.0536,0.0522,0.0493,0.0485,0.0458,0.042,0.0413,0.0392,0.0315,0.0264,0.0216,0.0201,0.0176,0.0166,0.0171,0.015,0.015,0.015,0.0144,0.0144,0.0148,0.0147,0.0147,0.0147,0,0.0585,0.0578,0.0582,0.055,0.0537,0.0531,0.0488,0.0475,0.0448,0.0425,0.039,0.0331,0.0291,0.0256,0.0217,0.0187,0.0182,0.016,0.0153,0.0154,0.0147,0.0146,0.015,0.0149,0.0149,0.0148,0,0,0.0644,0.0604,0.0603,0.0589,0.0543,0.0539,0.0506,0.0482,0.0488,0.0433,0.0437,0.0344,0.0337,0.0301,0.0253,0.022,0.0201,0.0189,0.0187,0.0196,0.0164,0.0171,0.0171,0.0176,0.0176,0.0176,0.0162,0,0.0661,0.065,0.062,0.0605,0.0595,0.0555,0.0535,0.0509,0.0494,0.0492,0.0431,0.0412,0.0343,0.0335,0.0289,0.0237,0.0199,0.0208,0.0152,0.0151,0.0166,0.0169,0.0127,0.0112,0.0161,0.016,0.016,0,0.0683,0.0672,0.0662,0.0636,0.0631,0.0616,0.061,0.0593,0.0576,0.0569,0.0545,0.0507,0.0452,0.0396,0.0302,0.0313,0.0239,0.0189,0.0187,0.0183,0.0156,0.0115,0.0108,-0.0068,0.0158,0.0158,0.0159,0,0.0729,0.0701,0.0698,0.0683,0.0648,0.0647,0.0638,0.0627,0.0646,0.0636,0.0663,0.0588,0.0576,0.0469,0.0361,0.0329,0.0276,0.0219,0.0153,0.0153,0.0102,0.0099,-0.0071,0.0144,0.0144,0.0144,0.0144,0,0.0751,0.0749,0.0723,0.0719,0.074,0.07,0.074,0.0729,0.0748,0.08,0.0718,0.0748,0.0593,0.054,0.041,0.0304,0.0312,0.0168,0.015,0.0114,0.0111,-0.0055,-0.0134,0.0143,0.0143,0.0143,0.0143,0,0.0789,0.0767,0.0769,0.0751,0.0759,0.0778,0.0813,0.0854,0.0858,0.0929,0.093,0.0882,0.0818,0.0674,0.053,0.0392,0.018,0.0225,0.0206,0.0186,-0.0058,-0.0131,-0.0269,-0.0329,0.0139,0.0139,0.0139,0,0.0801,0.0804,0.0811,0.0836,0.083,0.0863,0.0902,0.0913,0.0972,0.1021,0.1068,0.1025,0.1031,0.0837,0.058,0.0376,0.0208,0.0181,0.0095,-0.0067,-0.0164,-0.0216,-0.026,0.0038,0.0037,0.0037,0.0036,0,0.0829,0.0832,0.084,0.0898,0.0938,0.0994,0.1052,0.1117,0.1153,0.1222,0.1304,0.1315,0.1123,0.0907,0.0616,0.0438,0.0056,0.0162,-0.0019,-0.0259,-0.0315,-0.0381,0.0057,0.0031,0.0031,0.0032,0.0032,0.0032,0.0854,0.0876,0.0901,0.0956,0.102,0.1113,0.1173,0.1265,0.1378,0.1504,0.15,0.1561,0.1191,0.0793,0.0528,-0.0011,0.0029,-0.0193,-0.0267,-0.0302,-0.0375,0.0073,0.0036,0.0036,0.0037,0.0037,0.0038,0,0.0867,0.0903,0.0963,0.103,0.1111,0.1137,0.1265,0.1346,0.1496,0.1654,0.1748,0.1605,0.1152,0.067,-0.0043,-0.0388,-0.0528,-0.0579,-0.0707,-0.0729,-0.0358,-0.038,-0.0494,-0.0494,-0.0494,-0.0494,-0.0494,-0.0493,0.0873,0.0923,0.0958,0.1087,0.1152,0.126,0.1335,0.1486,0.162,0.183,0.1889,0.1906,0.1486,0.0219,-0.063,-0.0811,-0.1046,-0.1093,-0.1162,-0.0975,-0.0946,-0.0919,-0.0963,-0.1197,-0.1198,-0.1527,-0.153,-0.1533]}],[{"header":{"parameterUnit":"m.s-1","parameterCategory":2,"la1":30.2991,"la2":30.254,"lo1":-89.0895,"lo2":-89.0444,"dy":0.0017,"dx":0.0017,"nx":28,"ny":28,"refTime":"2025-07-28T03:00:00:Z","depth":"2","parameterNumber":2,"parameterNumberName":"U-component_of_CURRENTS"},"data":[0,0,0,0,0,0,0,0,0,0,0,0,0,0,0,0,0,0,0,0,0,0,0,0,0,0,0,0,0,0,0,0,0,0,0,0,0,0,0,0,0,0,0,0,0,0,0,0,0,0,0,0,0,0,0,0,0,0,0.1201,0.1201,0,0.1221,0.1221,0.1222,0.125,0.1251,0.1251,0.1251,0.1334,0.1335,0.1337,0,0,0,0,0,0,0,0,0,0,0,0,0,0.1182,0.1182,0.1201,0.1201,0.1201,0.1221,0.1222,0.1222,0.125,0.1251,0.1251,0.1251,0.1333,0.1335,0.1337,0,0,0,0,0,0,0,0,0,0,0,0,0,0.1196,0.1183,0.1201,0.1217,0.1219,0.1221,0.1222,0.1222,0.125,0.1251,0.1251,0.1252,0.1332,0.1335,0.1338,0.1343,0,0,0.1346,0.1347,0,0,0,0,0,0,0,0,0.1195,0.1197,0.1215,0.1216,0.1218,0.1233,0.1245,0.1265,0.125,0.1239,0.1251,0.1252,0.1305,0.131,0.1313,0.1346,0.135,0.1346,0.1348,0.1349,0.135,0,0,0,0,0,0,0,0.1194,0.1196,0.121,0.1215,0.1217,0.1221,0.1224,0.1249,0.127,0.124,0.1242,0.1242,0.1306,0.131,0.1315,0.1351,0.1346,0.1349,0.135,0.1351,0.1467,0.1469,0,0,0,0,0,0,0.1189,0.1195,0.1209,0.1211,0.1207,0.1221,0.1224,0.1228,0.1269,0.1275,0.1242,0.1244,0.1305,0.1312,0.1318,0.1371,0.1349,0.1352,0.1353,0.1466,0.1468,0.1469,0,0,0,0,0,0,0.1189,0.1191,0.1209,0.1202,0.1205,0.1221,0.1225,0.1228,0.1248,0.1269,0.1277,0.126,0.1306,0.1314,0.1385,0.1373,0.1353,0.1355,0.1464,0.1466,0.1468,0.1448,0,0,0,0,0,0,0.1188,0.119,0.1194,0.1202,0.1205,0.1221,0.1224,0.1228,0.1246,0.1249,0.1287,0.1294,0.1307,0.1381,0.1387,0.1376,0.1357,0.1462,0.1465,0.1468,0.1447,0.1449,0.1451,0,0,0,0,0,0.1188,0.1186,0.1194,0.1195,0.1208,0.1221,0.1224,0.1238,0.1247,0.1258,0.1308,0.1294,0.1401,0.1385,0.1392,0.1381,0.1461,0.1464,0.1467,0.1446,0.1449,0.1451,0,0,0,0,0,0,0.1174,0.1189,0.1197,0.12,0.1216,0.1226,0.1232,0.1246,0.1289,0.13,0.1327,0.1339,0.1392,0.1403,0.1385,0.1426,0.1422,0.1427,0.1403,0.1406,0.1408,0.1435,0.136,0,0,0,0,0,0.1173,0.1181,0.1196,0.1199,0.1207,0.1224,0.1232,0.1245,0.1279,0.1298,0.1337,0.1376,0.1406,0.1423,0.146,0.1487,0.1549,0.1483,0.1485,0.1487,0.1516,0.1619,0.1633,0.148,0.148,0.148,0,0,0.1167,0.1177,0.118,0.1198,0.1209,0.1221,0.1231,0.1247,0.1264,0.1301,0.1357,0.1395,0.1423,0.1459,0.1479,0.1467,0.1562,0.1491,0.1491,0.1521,0.1624,0.1639,0.1652,0.1482,0.1482,0.1481,0,0,0.1156,0.117,0.1173,0.119,0.1211,0.1224,0.1233,0.1267,0.1289,0.1352,0.1374,0.1426,0.148,0.1493,0.1503,0.1543,0.1581,0.1537,0.1555,0.1653,0.1666,0.1679,0.1771,0.1792,0.1524,0.1524,0.1524,0,0.1147,0.1159,0.1176,0.1186,0.1206,0.1227,0.1245,0.126,0.132,0.1369,0.1376,0.1497,0.1496,0.1542,0.1541,0.1544,0.1619,0.1532,0.1656,0.167,0.1683,0.1774,0.1798,0.1524,0.1524,0.1524,0.1524,0,0.1145,0.1156,0.1161,0.1186,0.1208,0.1226,0.1256,0.1301,0.1345,0.1388,0.1485,0.1515,0.1597,0.157,0.1561,0.1635,0.1664,0.1654,0.1644,0.1697,0.179,0.1815,0.1523,0.1523,0.1523,0.1523,0,0,0.1122,0.1153,0.1156,0.118,0.1217,0.124,0.128,0.1346,0.1414,0.1472,0.1576,0.1591,0.1646,0.1663,0.1654,0.1702,0.182,0.1712,0.1717,0.1797,0.206,0.192,0.1934,0.1842,0.1846,0.1849,0.2083,0,0.112,0.1139,0.1163,0.1199,0.1219,0.1272,0.132,0.1388,0.1466,0.1575,0.1616,0.1705,0.1663,0.1708,0.1756,0.1819,0.1889,0.1759,0.2005,0.2012,0.1876,0.1958,0.1834,0.2019,0.2108,0.2112,0.2115,0,0.1116,0.1135,0.1162,0.1238,0.1257,0.1289,0.1416,0.1465,0.16,0.1675,0.1782,0.1834,0.1913,0.1868,0.2037,0.1969,0.2027,0.2061,0.2072,0.1972,0.1919,0.1984,0.2061,0.2157,0.2154,0.2151,0.2148,0,0.1103,0.1145,0.1173,0.1192,0.1269,0.1322,0.1384,0.1512,0.1588,0.1751,0.184,0.1969,0.2047,0.2148,0.2202,0.2154,0.2398,0.2342,0.2282,0.2274,0.2232,0.221,0.2492,0.2492,0.2492,0.2491,0.249,0,0.1097,0.1124,0.1174,0.119,0.1265,0.1332,0.1447,0.1536,0.1684,0.1792,0.1893,0.1995,0.2126,0.2254,0.2297,0.2374,0.2493,0.2324,0.2334,0.2216,0.2191,0.2355,0.2336,0.25,0.2498,0.2496,0.2495,0,0.1076,0.1099,0.1141,0.1221,0.1253,0.1315,0.1455,0.1544,0.1685,0.1831,0.1883,0.2069,0.2221,0.2331,0.2511,0.2481,0.2567,0.2564,0.2403,0.2385,0.2361,0.2339,0.2542,0.2539,0.2537,0.2535,0.2533,0,0.1071,0.1079,0.1149,0.1181,0.1217,0.1315,0.1384,0.153,0.162,0.1856,0.1916,0.2113,0.2213,0.2423,0.2461,0.2554,0.257,0.2441,0.2282,0.2382,0.2373,0.2353,0.2335,0.2247,0.2244,0.224,0.2238,0,0.1061,0.1077,0.1112,0.1171,0.1231,0.1307,0.1414,0.148,0.1659,0.1771,0.1946,0.2048,0.2229,0.2267,0.2353,0.2367,0.2403,0.2369,0.2608,0.2195,0.2106,0.2095,0.2087,0.221,0.2213,0.2215,0.2216,0.2217,0.1066,0.1081,0.1121,0.1182,0.1238,0.1308,0.1372,0.1469,0.1595,0.1749,0.187,0.1977,0.2068,0.2116,0.2108,0.2117,0.2232,0.2153,0.2164,0.2178,0.2043,0.1948,0.2,0.2002,0.2003,0.2004,0.2006,0,0.1088,0.1101,0.1138,0.1209,0.1257,0.1295,0.1397,0.1434,0.1538,0.1658,0.1762,0.1698,0.1762,0.1855,0.1835,0.1822,0.1819,0.1746,0.1755,0.1786,0.1813,0.1658,0.1515,0.1512,0.151,0.1508,0,0,0.1105,0.1125,0.1134,0.1213,0.126,0.1307,0.1356,0.1363,0.1436,0.1471,0.1524,0.168,0.1808,0.1629,0.1626,0.1574,0.1656,0.1519,0.1927,0.1971,0.1995,0.2077,0.1876,0,0,0,0,0]},{"header":{"parameterUnit":"m.s-1","parameterCategory":2,"la1":30.2991,"la2":30.254,"lo1":-89.0895,"lo2":-89.0444,"dy":0.0017,"dx":0.0017,"nx":28,"ny":28,"refTime":"2025-07-28T03:00:00:Z","depth":"2","parameterNumber":3,"parameterNumberName":"V-component_of_CURRENTS"},"data":[0,0,0,0,0,0,0,0,0,0,0,0,0,0,0,0,0,0,0,0,0,0,0,0,0,0,0,0,0,0,0,0,0,0,0,0,0,0,0,0,0,0,0,0,0,0,0,0,0,0,0,0,0,0,0,0,0,0,0.0205,0.0204,0,0.0153,0.0152,0.0151,0.0116,0.0116,0.0116,0.0116,-0.0011,-0.0014,-0.0017,0,0,0,0,0,0,0,0,0,0,0,0,0,0.0236,0.0236,0.0205,0.0204,0.0204,0.0153,0.0152,0.0151,0.0116,0.0116,0.0116,0.0116,-0.001,-0.0014,-0.0018,0,0,0,0,0,0,0,0,0,0,0,0,0,0.0205,0.0236,0.0205,0.0182,0.0179,0.0153,0.0152,0.0151,0.0116,0.0116,0.0116,0.0116,-0.0008,-0.0013,-0.0018,-0.0047,0,0,-0.0033,-0.0036,0,0,0,0,0,0,0,0,0.0207,0.0204,0.0185,0.0183,0.018,0.0142,0.0117,0.0081,0.0116,0.0138,0.0116,0.0116,0.0035,0.0026,0.0015,-0.0053,-0.0059,-0.0034,-0.0037,-0.0039,-0.004,0,0,0,0,0,0,0,0.0209,0.0206,0.0182,0.0185,0.0182,0.0161,0.0157,0.011,0.0084,0.0136,0.0134,0.0131,0.0033,0.002,0.0011,-0.006,-0.0034,-0.0038,-0.0041,-0.0043,-0.0188,-0.0189,0,0,0,0,0,0,0.0222,0.0208,0.0184,0.0181,0.0196,0.0161,0.0156,0.0153,0.0086,0.0077,0.0131,0.013,0.0028,0.0017,0.0007,-0.0038,-0.0039,-0.0044,-0.0046,-0.0187,-0.0188,-0.0189,0,0,0,0,0,0,0.0223,0.022,0.0186,0.0195,0.0189,0.0161,0.0158,0.0152,0.0142,0.0084,0.0073,0.0128,0.0028,0.0014,-0.0035,-0.0043,-0.0046,-0.005,-0.0186,-0.0188,-0.0189,-0.0123,0,0,0,0,0,0,0.0224,0.0221,0.0225,0.0196,0.0189,0.0173,0.0158,0.0151,0.0141,0.0139,0.0077,0.0066,0.0027,-0.0027,-0.004,-0.005,-0.0054,-0.0185,-0.0187,-0.0188,-0.0124,-0.0122,-0.012,0,0,0,0,0,0.0225,0.023,0.0225,0.0223,0.0195,0.0174,0.0168,0.0146,0.0142,0.0137,0.0095,0.0068,-0.0047,-0.0032,-0.0047,-0.0058,-0.0184,-0.0186,-0.0188,-0.0125,-0.0122,-0.012,0,0,0,0,0,0,0.0249,0.0226,0.0221,0.0219,0.0201,0.0169,0.0165,0.0151,0.0116,0.0113,0.006,0.0044,-0.0004,-0.0043,-0.0024,-0.0107,-0.0122,-0.0127,-0.0069,-0.0067,-0.0065,-0.002,-0.0058,0,0,0,0,0,0.0257,0.0253,0.0229,0.0229,0.0222,0.0195,0.0186,0.0171,0.0138,0.0123,0.0081,0.0028,-0.0025,-0.0052,-0.0104,-0.0145,-0.0165,-0.0165,-0.0163,-0.0161,-0.0137,-0.0171,-0.0169,-0.0196,-0.0196,-0.0196,0,0,0.0268,0.0255,0.0254,0.0234,0.0218,0.0207,0.0189,0.0177,0.0167,0.0112,0.0084,0.0034,-0.0035,-0.0082,-0.0108,-0.0113,-0.0169,-0.0163,-0.016,-0.0137,-0.0173,-0.017,-0.0167,-0.0197,-0.0197,-0.0197,0,0,0.0279,0.0275,0.0271,0.0257,0.0237,0.0221,0.0221,0.0191,0.0177,0.0143,0.0098,0.0056,-0.0026,-0.0066,-0.0101,-0.012,-0.0158,-0.0151,-0.0102,-0.0137,-0.0134,-0.0131,-0.0164,-0.0165,-0.0148,-0.0148,-0.0148,0,0.0293,0.0286,0.0267,0.0258,0.0256,0.0231,0.023,0.0208,0.0167,0.0166,0.014,0.0046,-0.0014,-0.0059,-0.007,-0.0111,-0.0137,-0.0101,-0.013,-0.0128,-0.0126,-0.0161,-0.0162,-0.0145,-0.0146,-0.0146,-0.0146,0,0.0292,0.0292,0.029,0.0273,0.0269,0.0264,0.024,0.0231,0.0214,0.02,0.0162,0.0087,0.004,0.0,-0.0043,-0.0068,-0.0092,-0.0121,-0.0124,-0.0119,-0.0157,-0.016,-0.0141,-0.0142,-0.0143,-0.0144,0,0,0.0305,0.0293,0.0292,0.03,0.028,0.028,0.0271,0.0266,0.0286,0.0231,0.0244,0.0146,0.0128,0.0087,0.0026,-0.0006,-0.0033,-0.0052,-0.0056,-0.0063,-0.0107,-0.0172,-0.0183,-0.0066,-0.0066,-0.0066,-0.014,0,0.0311,0.0309,0.0302,0.0315,0.0317,0.0309,0.0313,0.031,0.0305,0.0309,0.0245,0.0221,0.0151,0.0132,0.009,0.0004,-0.0036,-0.001,-0.0129,-0.0132,-0.0173,-0.0186,-0.0145,-0.0211,-0.0143,-0.0143,-0.0144,0,0.0307,0.0311,0.0323,0.0354,0.0357,0.0366,0.0401,0.0404,0.0405,0.0403,0.038,0.0332,0.0275,0.0213,0.009,0.0111,0.0012,-0.0058,-0.0063,-0.0141,-0.0203,-0.0207,-0.022,-0.0149,-0.0149,-0.0148,-0.0148,0,0.0319,0.0333,0.0351,0.0353,0.0373,0.0395,0.0416,0.0437,0.0469,0.047,0.0489,0.042,0.0388,0.0267,0.0121,0.0102,-0.0006,-0.0059,-0.0211,-0.0217,-0.0212,-0.0218,-0.0147,-0.0147,-0.0147,-0.0147,-0.0146,0,0.0319,0.0338,0.0364,0.0368,0.0422,0.0432,0.0499,0.0512,0.0554,0.0603,0.0543,0.0553,0.0401,0.0315,0.0164,-0.002,0.0019,-0.0195,-0.0239,-0.0193,-0.0196,-0.0164,-0.0164,-0.0149,-0.0149,-0.0148,-0.0148,0,0.0317,0.0327,0.0356,0.0395,0.0422,0.0461,0.0552,0.06,0.0636,0.0694,0.0693,0.0658,0.0532,0.037,0.0185,0.0036,-0.0135,-0.0215,-0.0149,-0.0186,-0.0338,-0.0335,-0.0404,-0.0407,-0.041,-0.0412,-0.0414,0,0.0317,0.0322,0.0376,0.041,0.0431,0.0504,0.0559,0.0627,0.0686,0.0753,0.0775,0.0697,0.0622,0.0343,0.0099,-0.017,-0.0191,-0.0317,-0.0365,-0.0327,-0.0363,-0.0356,-0.035,-0.0334,-0.0334,-0.0335,-0.0336,0,0.0313,0.0326,0.0348,0.0414,0.0477,0.0559,0.0644,0.0708,0.0789,0.0847,0.0887,0.0837,0.0579,0.0336,-0.0008,-0.0188,-0.0273,-0.0348,-0.0305,-0.0285,-0.027,-0.0302,-0.0297,-0.0343,-0.0342,-0.0341,-0.0341,-0.0341,0.0321,0.0333,0.0362,0.0428,0.05,0.0596,0.069,0.0787,0.0895,0.1003,0.094,0.0903,0.0628,0.0185,-0.0091,-0.0353,-0.0381,-0.0476,-0.0469,-0.0462,-0.0451,-0.0442,-0.0545,-0.0545,-0.0545,-0.0546,-0.0546,0,0.0336,0.0346,0.0385,0.0465,0.0543,0.0594,0.0739,0.0864,0.1011,0.1061,0.1084,0.0821,0.0524,0.0239,-0.0162,-0.0454,-0.0437,-0.0528,-0.0429,-0.0423,-0.0417,-0.0399,-0.0481,-0.0482,-0.0482,-0.0482,0,0,0.0347,0.0364,0.0371,0.0483,0.056,0.0721,0.0824,0.1009,0.1116,0.1181,0.1167,0.1029,0.0643,0.0364,-0.001,-0.0221,-0.0249,-0.0267,-0.0295,-0.0129,-0.0118,-0.0374,-0.034,0,0,0,0,0]}],[{"header":{"parameterUnit":"m.s-1","parameterCategory":2,"la1":30.2991,"la2":30.254,"lo1":-89.0895,"lo2":-89.0444,"dy":0.0017,"dx":0.0017,"nx":28,"ny":28,"refTime":"2025-07-28T03:00:00:Z","depth":"4","parameterNumber":2,"parameterNumberName":"U-component_of_CURRENTS"},"data":[0,0,0,0,0,0,0,0,0,0,0,0,0,0,0,0,0,0,0,0,0,0,0,0,0,0,0,0,0,0,0,0,0,0,0,0,0,0,0,0,0,0,0,0,0,0,0,0,0,0,0,0,0,0,0,0,0,0,0.0475,0.0476,0,0.0497,0.0497,0.0498,0.0522,0.0523,0.0523,0.0524,0.0527,0.0527,0.0526,0,0,0,0,0,0,0,0,0,0,0,0,0,0.0435,0.0435,0.0475,0.0476,0.0476,0.0497,0.0498,0.0498,0.0522,0.0523,0.0523,0.0524,0.0527,0.0527,0.0526,0,0,0,0,0,0,0,0,0,0,0,0,0,0.0453,0.0435,0.0475,0.0492,0.0494,0.0497,0.0498,0.0498,0.0522,0.0523,0.0523,0.0524,0.0527,0.0527,0.0526,0.0508,0,0,0.0525,0.0524,0,0,0,0,0,0,0,0,0.0452,0.0454,0.0489,0.0491,0.0493,0.0509,0.0485,0.0501,0.0522,0.051,0.0524,0.0525,0.052,0.052,0.0521,0.0508,0.0508,0.0525,0.0524,0.0524,0.0524,0,0,0,0,0,0,0,0.045,0.0453,0.0482,0.0489,0.0492,0.0492,0.0495,0.0488,0.0509,0.0511,0.0513,0.0518,0.0521,0.0521,0.0521,0.0508,0.0525,0.0524,0.0524,0.0524,0.0521,0.0521,0,0,0,0,0,0,0.0451,0.0452,0.0482,0.0483,0.0475,0.0492,0.0496,0.0502,0.0509,0.0512,0.0517,0.0519,0.0522,0.0521,0.0521,0.055,0.0524,0.0523,0.0523,0.0521,0.0521,0.0521,0,0,0,0,0,0,0.045,0.0453,0.0481,0.0469,0.0473,0.0492,0.0499,0.0502,0.0527,0.0515,0.0516,0.0542,0.0522,0.0522,0.0527,0.0548,0.0523,0.0523,0.052,0.0521,0.0521,0.0575,0,0,0,0,0,0,0.0449,0.0453,0.0463,0.0469,0.0474,0.0495,0.0498,0.0502,0.0528,0.0531,0.0536,0.0536,0.0523,0.0528,0.0526,0.0547,0.0522,0.052,0.0521,0.0521,0.0573,0.0577,0.0581,0,0,0,0,0,0.0447,0.0458,0.0464,0.0468,0.0486,0.0496,0.0498,0.0513,0.0529,0.0539,0.0541,0.0537,0.053,0.0527,0.0526,0.0547,0.052,0.052,0.0521,0.0571,0.0577,0.0581,0,0,0,0,0,0,0.0447,0.0462,0.0468,0.0484,0.0495,0.0501,0.0516,0.0527,0.0538,0.0546,0.0538,0.0538,0.0551,0.0537,0.0534,0.0546,0.0525,0.0525,0.0564,0.0569,0.0573,0.0576,0.0522,0,0,0,0,0,0.0451,0.0465,0.0475,0.0489,0.0498,0.0512,0.0523,0.0532,0.054,0.0547,0.0556,0.0554,0.0547,0.055,0.0541,0.0548,0.0537,0.0559,0.0563,0.0567,0.0567,0.0568,0.0572,0.0523,0.0523,0.0523,0,0,0.0453,0.0465,0.0472,0.0491,0.0503,0.052,0.0521,0.0542,0.0561,0.0544,0.058,0.0571,0.055,0.0557,0.0562,0.0553,0.0576,0.0568,0.0571,0.0569,0.0569,0.0574,0.0578,0.0524,0.0524,0.0523,0,0,0.0461,0.0479,0.0491,0.0504,0.0526,0.0537,0.0551,0.0573,0.0588,0.0611,0.06,0.0605,0.061,0.0594,0.0585,0.0605,0.0597,0.0608,0.0635,0.0636,0.064,0.0644,0.0644,0.0647,0.0612,0.0612,0.0612,0,0.0466,0.0483,0.0496,0.0513,0.0528,0.0551,0.0569,0.0586,0.061,0.0624,0.0632,0.064,0.0626,0.062,0.0624,0.0616,0.0615,0.0621,0.0643,0.0646,0.0649,0.0647,0.065,0.0615,0.0614,0.0614,0.0614,0,0.0479,0.0498,0.051,0.054,0.0558,0.0578,0.0602,0.0631,0.0663,0.0679,0.0702,0.0683,0.0689,0.0683,0.066,0.067,0.0663,0.0649,0.0635,0.0657,0.0654,0.0656,0.0618,0.0617,0.0617,0.0616,0,0,0.0477,0.0511,0.0517,0.0535,0.0575,0.0591,0.0629,0.0663,0.0702,0.0724,0.0764,0.0743,0.0749,0.0737,0.0713,0.0707,0.0724,0.0691,0.069,0.0697,0.0733,0.0775,0.078,0.0722,0.0723,0.0723,0.0725,0,0.0486,0.0514,0.0533,0.0573,0.0591,0.0624,0.0665,0.07,0.0737,0.0785,0.0774,0.0806,0.0765,0.078,0.0765,0.0737,0.0731,0.0725,0.0703,0.0702,0.0742,0.0785,0.0724,0.0726,0.0727,0.0727,0.0727,0,0.0495,0.0513,0.0543,0.0595,0.061,0.0645,0.0714,0.0762,0.082,0.0849,0.087,0.0872,0.0866,0.0839,0.0802,0.0805,0.0772,0.0746,0.0746,0.0766,0.0748,0.0695,0.073,0.073,0.073,0.073,0.073,0,0.0484,0.0525,0.0551,0.0566,0.0627,0.066,0.0719,0.0786,0.082,0.0909,0.0935,0.0937,0.095,0.091,0.086,0.0838,0.0828,0.079,0.0792,0.0794,0.0729,0.0725,0.0767,0.0767,0.0767,0.0767,0.0767,0,0.0486,0.0511,0.0553,0.0568,0.0617,0.0681,0.0747,0.0812,0.0884,0.0933,0.0979,0.0993,0.097,0.0956,0.0896,0.0868,0.0859,0.0809,0.0805,0.0752,0.075,0.0731,0.0727,0.0767,0.0767,0.0767,0.0767,0,0.0475,0.05,0.053,0.0589,0.0611,0.0664,0.0746,0.0796,0.089,0.0953,0.0983,0.1033,0.1058,0.1026,0.0982,0.0927,0.0889,0.0875,0.084,0.0831,0.0837,0.0836,0.0875,0.0876,0.0878,0.0879,0.088,0,0.0471,0.0485,0.0531,0.0549,0.058,0.0651,0.0698,0.0791,0.0838,0.0961,0.0984,0.1052,0.1076,0.1053,0.1029,0.0977,0.0947,0.092,0.0856,0.086,0.0852,0.0848,0.0845,0.0882,0.0883,0.0883,0.0883,0,0.0455,0.0476,0.0496,0.0532,0.0572,0.0609,0.069,0.0702,0.0832,0.089,0.098,0.1015,0.1065,0.1062,0.1061,0.0996,0.0938,0.0933,0.0928,0.0868,0.087,0.0859,0.0854,0.0888,0.0888,0.0887,0.0887,0,0.044,0.0446,0.0473,0.0505,0.0549,0.0583,0.0618,0.0691,0.0745,0.0885,0.0906,0.1001,0.1063,0.1073,0.1048,0.1039,0.0998,0.093,0.0924,0.0918,0.0934,0.0943,0.0995,0,0,0,0,0,0.0415,0.042,0.0446,0.0467,0.0513,0.0542,0.062,0.0661,0.0752,0.0808,0.0863,0.0921,0.0975,0.101,0.1003,0.1039,0.0977,0.1026,0.0888,0.0916,0.091,0.0926,0,0,0,0,0,0,0.0398,0.0415,0.0425,0.0434,0.045,0.0493,0.0545,0.0607,0.0648,0.0751,0.0785,0.0867,0.0919,0.0964,0.0982,0.0991,0.089,0.1076,0.1075,0.0919,0.0914,0.0909,0.0924,0,0,0,0,0]},{"header":{"parameterUnit":"m.s-1","parameterCategory":2,"la1":30.2991,"la2":30.254,"lo1":-89.0895,"lo2":-89.0444,"dy":0.0017,"dx":0.0017,"nx":28,"ny":28,"refTime":"2025-07-28T03:00:00:Z","depth":"4","parameterNumber":3,"parameterNumberName":"V-component_of_CURRENTS"},"data":[0,0,0,0,0,0,0,0,0,0,0,0,0,0,0,0,0,0,0,0,0,0,0,0,0,0,0,0,0,0,0,0,0,0,0,0,0,0,0,0,0,0,0,0,0,0,0,0,0,0,0,0,0,0,0,0,0,0,-0.0201,-0.0202,0,-0.0263,-0.0264,-0.0265,-0.0312,-0.0312,-0.0313,-0.0313,-0.0397,-0.0399,-0.0401,0,0,0,0,0,0,0,0,0,0,0,0,0,-0.0153,-0.0153,-0.0201,-0.0202,-0.0203,-0.0263,-0.0264,-0.0265,-0.0312,-0.0312,-0.0313,-0.0313,-0.0396,-0.0399,-0.0401,0,0,0,0,0,0,0,0,0,0,0,0,0,-0.0191,-0.0154,-0.0201,-0.0233,-0.0236,-0.0263,-0.0264,-0.0265,-0.0312,-0.0312,-0.0313,-0.0314,-0.0396,-0.0399,-0.0401,-0.0408,0,0,-0.041,-0.0411,0,0,0,0,0,0,0,0,-0.0189,-0.0193,-0.0228,-0.0231,-0.0235,-0.028,-0.0278,-0.0314,-0.0312,-0.0284,-0.0313,-0.0314,-0.0359,-0.0365,-0.0376,-0.0412,-0.0415,-0.041,-0.0412,-0.0413,-0.0414,0,0,0,0,0,0,0,-0.0186,-0.019,-0.0227,-0.0228,-0.0233,-0.0254,-0.026,-0.0285,-0.0319,-0.0286,-0.029,-0.0295,-0.0361,-0.0373,-0.0378,-0.0416,-0.041,-0.0413,-0.0414,-0.0416,-0.0486,-0.0486,0,0,0,0,0,0,-0.0175,-0.0188,-0.0225,-0.0228,-0.0212,-0.0254,-0.0261,-0.0265,-0.0318,-0.0326,-0.0295,-0.0297,-0.0368,-0.0375,-0.0382,-0.0426,-0.0413,-0.0416,-0.0417,-0.0486,-0.0486,-0.0487,0,0,0,0,0,0,-0.0173,-0.0177,-0.0222,-0.0209,-0.0216,-0.0254,-0.0259,-0.0266,-0.0298,-0.0324,-0.0333,-0.0321,-0.0369,-0.0378,-0.0403,-0.0428,-0.0417,-0.042,-0.0486,-0.0486,-0.0486,-0.0493,0,0,0,0,0,0,-0.0172,-0.0176,-0.0182,-0.0208,-0.0216,-0.0239,-0.0259,-0.0267,-0.0299,-0.0303,-0.0349,-0.0356,-0.037,-0.0398,-0.0406,-0.0432,-0.0422,-0.0486,-0.0486,-0.0486,-0.0493,-0.0494,-0.0494,0,0,0,0,0,-0.017,-0.0173,-0.0182,-0.0187,-0.0221,-0.0239,-0.0245,-0.0275,-0.0299,-0.0307,-0.0333,-0.0356,-0.0406,-0.04,-0.0409,-0.0437,-0.0486,-0.0486,-0.0486,-0.0492,-0.0493,-0.0494,0,0,0,0,0,0,-0.016,-0.0179,-0.0189,-0.02,-0.0218,-0.0246,-0.026,-0.0284,-0.0314,-0.0323,-0.0355,-0.0363,-0.0398,-0.0409,-0.0403,-0.0456,-0.0452,-0.0454,-0.0453,-0.0455,-0.0455,-0.0455,-0.0424,0,0,0,0,0,-0.0158,-0.0165,-0.0185,-0.0196,-0.0204,-0.0237,-0.0252,-0.027,-0.0296,-0.0312,-0.0349,-0.038,-0.0404,-0.0421,-0.0444,-0.0471,-0.0479,-0.0494,-0.0495,-0.0495,-0.0499,-0.0528,-0.0532,-0.0488,-0.0488,-0.0488,0,0,-0.0157,-0.0169,-0.0175,-0.0194,-0.0213,-0.0218,-0.0248,-0.027,-0.0279,-0.0315,-0.0353,-0.0388,-0.0411,-0.044,-0.0457,-0.0455,-0.0509,-0.0496,-0.0497,-0.05,-0.0529,-0.0533,-0.0537,-0.0488,-0.0488,-0.0488,0,0,-0.0151,-0.017,-0.0169,-0.0179,-0.0201,-0.0217,-0.0226,-0.0265,-0.0287,-0.0322,-0.0349,-0.0393,-0.0441,-0.0458,-0.0471,-0.0489,-0.0513,-0.0507,-0.0514,-0.0541,-0.0545,-0.0549,-0.0551,-0.0555,-0.0506,-0.0506,-0.0506,0,-0.0148,-0.0151,-0.0173,-0.0171,-0.0179,-0.0217,-0.0215,-0.0237,-0.0283,-0.0308,-0.0333,-0.0423,-0.0447,-0.0478,-0.0486,-0.0494,-0.0506,-0.0509,-0.0543,-0.0547,-0.0551,-0.0552,-0.0556,-0.0507,-0.0507,-0.0507,-0.0507,0,-0.0136,-0.0139,-0.0141,-0.0148,-0.0159,-0.0166,-0.0189,-0.0218,-0.0266,-0.0302,-0.0367,-0.0411,-0.0468,-0.0486,-0.0495,-0.0537,-0.0535,-0.0542,-0.0542,-0.0556,-0.0556,-0.056,-0.0507,-0.0507,-0.0507,-0.0507,0,0,-0.0123,-0.013,-0.013,-0.0127,-0.0147,-0.0153,-0.017,-0.02,-0.0227,-0.0299,-0.0348,-0.041,-0.0467,-0.0485,-0.0517,-0.0546,-0.058,-0.0561,-0.0562,-0.0564,-0.0631,-0.0597,-0.0598,-0.0603,-0.0604,-0.0605,-0.0615,0,-0.0106,-0.0094,-0.0104,-0.0097,-0.0094,-0.0124,-0.0138,-0.0173,-0.0225,-0.0283,-0.0354,-0.0409,-0.0453,-0.0492,-0.0535,-0.0571,-0.0595,-0.0576,-0.0616,-0.0616,-0.0586,-0.0603,-0.0608,-0.0618,-0.0619,-0.062,-0.062,0,-0.0086,-0.0082,-0.0067,-0.0074,-0.0077,-0.0079,-0.0116,-0.0136,-0.0211,-0.0258,-0.0342,-0.0401,-0.0468,-0.05,-0.0583,-0.0575,-0.0606,-0.0631,-0.0632,-0.0604,-0.0591,-0.0604,-0.0628,-0.0627,-0.0627,-0.0626,-0.0626,0,-0.0064,-0.0056,-0.0045,-0.0044,-0.0057,-0.0063,-0.0083,-0.0139,-0.015,-0.0247,-0.0273,-0.0385,-0.0427,-0.0505,-0.0578,-0.0585,-0.0658,-0.0665,-0.0658,-0.0654,-0.0679,-0.0675,-0.0714,-0.0714,-0.0714,-0.0714,-0.0714,0,-0.0041,-0.0031,-0.0032,-0.0025,-0.0013,-0.0044,-0.0049,-0.0091,-0.0141,-0.015,-0.0263,-0.0287,-0.0433,-0.0495,-0.0571,-0.063,-0.0653,-0.0662,-0.0662,-0.0678,-0.0674,-0.0681,-0.0677,-0.0715,-0.0714,-0.0714,-0.0714,0,-0.0016,-0.0019,0.0001,-0.0003,0.0002,0.0003,0.0004,0.0,-0.0062,-0.0075,-0.0098,-0.0209,-0.03,-0.0423,-0.0537,-0.059,-0.0662,-0.067,-0.0664,-0.0663,-0.0638,-0.0634,-0.0662,-0.0661,-0.066,-0.066,-0.0659,0,-0.0002,0.001,0.0031,0.0056,0.0061,0.0069,0.0085,0.004,0.0046,-0.0012,-0.0007,-0.0104,-0.0185,-0.0311,-0.0466,-0.0608,-0.0623,-0.0652,-0.0668,-0.0639,-0.0636,-0.0634,-0.0631,-0.0658,-0.0658,-0.0657,-0.0657,0,0.0031,0.0037,0.0058,0.0112,0.0143,0.0179,0.0195,0.0214,0.0168,0.0125,0.0096,-0.0004,-0.0105,-0.0267,-0.0385,-0.0488,-0.064,-0.0644,-0.0646,-0.0661,-0.0634,-0.0632,-0.063,-0.0654,-0.0655,-0.0655,-0.0655,0,0.006,0.0086,0.0122,0.0171,0.0224,0.028,0.0276,0.0295,0.0291,0.0227,0.0221,0.0076,-0.0029,-0.0202,-0.0312,-0.0422,-0.0445,-0.0465,-0.0477,-0.0482,-0.0442,-0.0382,-0.0325,0,0,0,0,0,0.0092,0.013,0.0184,0.0247,0.0306,0.0333,0.0356,0.0344,0.0313,0.0322,0.0274,0.018,-0.0003,-0.0107,-0.0203,-0.0308,-0.0477,-0.0425,-0.0508,-0.0639,-0.0642,-0.0625,0,0,0,0,0,0,0.0114,0.0165,0.0196,0.031,0.0368,0.0433,0.0449,0.0422,0.0417,0.0365,0.0267,0.0186,-0.0003,0.0069,-0.0191,-0.0234,-0.0292,-0.0532,-0.0533,-0.0637,-0.064,-0.0642,-0.0627,0,0,0,0,0]}]]